星链-3997 (STARLINK-3997 )

导读 | 豆包AI

STARLINK-3997是美国太空探索技术公司(SpaceX)星链(Starlink)卫星互联网项目的卫星,于北京时间2022年5月14日发射,归属星链星座,该星座旨在为全球提供高速低延迟卫星互联网服务,这款卫星依托 SpaceX 的技术,是星链组网进程中的重要组成单元。

基本信息
目录编号:
52609
目录名称:
STARLINK-3997
国际标识:
2022-052M
轨道中心:
EARTH
卫星名称:
星链-3997
卫星全名:
星链-3997 (STARLINK-3997 )
卫星状态:
在轨 (已飞行1447 天)
发射日期:
2022-05-14 UTC
国别 :
美国 (US)
星等 :
--
轨道信息
数据来源 国际轨道数据
星历时间: 2026-04-30T19:59:34+0800
9小时前
查看轨道信息
半长轴: 6917.888km
偏心率: 0.0001755
轨道倾角: 53.218°
近地点辐角 85.156°
升交点赤经 46.488°
平近点角 274.963°
近地点: 538.536km
远地点: 540.966km
周期: 95.438分钟
每日圈数: 15.088376
详细信息
固有亮度:
5
最大亮度:
2.5
卫星平台:
Starlink v1.5
覆盖范围:
全球
运营商:
太空探索技术公司
运营商所在国:
美国
制造商(研发单位):
太空探索技术公司
制造商所在国:
美国
使用方式:
暂无
卫星简介
星链(Starlink)计划是由太空探索技术公司(SpaceX)提出的一个巨型低轨卫星互联网星座项目,计划在2019年至2024年间在太空搭建由约1.2万颗卫星组成的“星链”网络,其中1584颗将部署在地球上空550千米处的近地轨道,并从2020年开始工作。该卫星仍在工作。
2D轨道图
3D轨道图
轨道高度分析图
轨道倾角分析图
轨道综合分析图
查看轨道综合分析图